Location: Unspecified
(0.0000°N, 0.0000°E)
Time: 20:17:49
(UTC+00:00)

S-56A Canister/Altair - All Passes

Search period start: 01 August 2015 00:00
Search period end: 11 August 2015 00:00
Orbit: 637 x 2498 km, 38.9° (Epoch: 30 July)

Date Brightness Start Highest point End Pass type
(mag) Time Alt. Az. Time Alt. Az. Time Alt. Az.
01 Aug - 00:40:38 10° SW 00:54:35 71° NW 01:04:10 10° NE visible
01 Aug - 02:53:30 10° WNW 02:59:43 16° NW 03:04:15 10° N visible
01 Aug - 11:23:48 10° NNW 11:28:28 39° NE 11:34:53 10° ESE daylight
01 Aug - 13:27:20 10° W 13:32:55 32° SSW 13:40:39 10° SSE daylight
01 Aug - 20:00:08 10° S 20:04:21 12° SSE 20:09:38 10° SE visible
01 Aug - 22:01:18 10° SSW 22:14:25 37° SE 22:25:48 10° E visible
02 Aug - 00:07:09 10° SW 00:21:42 81° NW 00:31:59 10° NE night (unlit)
02 Aug - 02:18:43 10° W 02:27:05 21° NW 02:33:08 10° N visible
02 Aug - 10:52:09 10° NNW 10:56:20 29° NE 11:01:45 10° ESE daylight
02 Aug - 12:55:06 10° WNW 13:00:24 37° SW 13:07:53 10° SSE daylight
02 Aug - 19:30:11 10° SSE 19:30:44 10° SSE 19:32:25 10° SSE visible
02 Aug - 21:28:28 10° SSW 21:41:04 33° SSE 21:52:39 10° E visible
02 Aug - 23:33:47 10° SW 23:48:43 90° SSE 23:59:42 10° NE night (unlit)
03 Aug - 01:44:17 10° W 01:54:23 26° NW 02:01:39 10° N visible
03 Aug - 10:20:38 10° N 10:24:11 22° NE 10:28:34 10° E daylight
03 Aug - 12:22:53 10° WNW 12:27:59 42° SW 12:35:09 10° SSE daylight
03 Aug - 20:55:44 10° SSW 21:07:40 29° SSE 21:19:17 10° E visible
03 Aug - 23:00:30 10° SW 23:15:40 81° SE 23:27:17 10° NE visible
04 Aug - 01:10:04 10° WSW 01:21:37 32° NW 01:29:58 10° NNE visible
04 Aug - 09:49:17 10° N 09:52:01 16° NE 09:55:14 10° E daylight
04 Aug - 11:50:46 10° WNW 11:55:39 51° SW 12:02:28 10° SE daylight
04 Aug - 14:00:38 10° SSW 14:01:53 10° SSW 14:02:48 10° SSW daylight
04 Aug - 20:23:09 10° SSW 20:34:15 26° SSE 20:45:39 10° E visible
04 Aug - 22:27:20 10° SW 22:42:31 73° SE 22:54:45 10° NE visible
05 Aug - 00:36:02 10° WSW 00:48:47 38° NW 00:58:07 10° NNE visible
05 Aug - 09:18:29 10° NNE 09:19:48 11° NE 09:21:25 10° ENE daylight
05 Aug - 11:18:41 10° WNW 11:23:24 63° SW 11:29:48 10° SE daylight
05 Aug - 13:27:04 10° SW 13:29:09 11° SSW 13:31:03 10° S daylight
05 Aug - 19:50:43 10° SSW 20:00:49 23° SSE 20:11:46 10° E visible
05 Aug - 21:54:16 10° SW 22:09:17 65° SE 22:22:04 10° ENE visible
06 Aug - 00:02:10 10° WSW 00:15:53 45° NW 00:26:06 10° NNE night (unlit)
06 Aug - 10:46:38 10° NW 10:51:14 79° SW 10:57:12 10° SE daylight
06 Aug - 12:53:58 10° SW 12:56:30 12° SSW 12:59:02 10° S daylight
06 Aug - 19:18:28 10° S 19:27:22 20° SSE 19:37:33 10° ESE visible
06 Aug - 21:21:18 10° SW 21:36:01 59° SE 21:49:14 10° ENE visible
06 Aug - 23:28:28 10° WSW 23:42:53 52° NW 23:53:59 10° NNE visible
07 Aug - 01:44:41 10° WNW 01:49:29 12° NW 01:52:49 10° NNW visible
07 Aug - 10:14:37 10° NW 10:19:06 79° NE 10:24:38 10° SE daylight
07 Aug - 12:21:04 10° WSW 12:23:56 14° SSW 12:26:57 10° S daylight
07 Aug - 18:46:28 10° S 18:53:57 17° SSE 19:02:56 10° ESE visible
07 Aug - 20:48:29 10° SSW 21:02:42 52° SE 21:16:13 10° ENE visible
07 Aug - 22:54:55 10° WSW 23:09:49 60° NW 23:21:44 10° NE visible
08 Aug - 01:08:54 10° WNW 01:16:31 16° NW 01:22:11 10° N visible
08 Aug - 09:42:39 10° NW 09:47:01 59° NE 09:52:05 10° ESE daylight
08 Aug - 11:48:19 10° WSW 11:51:26 15° SSW 11:54:51 10° S daylight
08 Aug - 18:14:51 10° S 18:20:32 14° SSE 18:27:47 10° ESE visible
08 Aug - 20:15:47 10° SSW 20:29:23 46° SE 20:43:03 10° ENE visible
08 Aug - 22:21:31 10° WSW 22:36:41 68° NW 22:49:20 10° NE visible
09 Aug - 00:33:55 10° W 00:43:31 20° NW 00:50:50 10° N visible
09 Aug - 09:10:42 10° NNW 09:14:56 43° NE 09:19:33 10° ESE daylight
09 Aug - 11:15:41 10° WSW 11:19:01 18° SSW 11:22:45 10° S daylight
09 Aug - 17:44:08 10° SSE 17:47:09 11° SSE 17:51:35 10° SE daylight
09 Aug - 19:43:13 10° SSW 19:56:04 41° SE 20:09:41 10° ENE visible
09 Aug - 21:48:16 10° SW 22:03:29 76° NW 22:16:49 10° NE visible
09 Aug - 23:59:20 10° W 00:10:28 24° NW 00:19:09 10° N visible
10 Aug - 08:38:47 10° NNW 08:42:49 32° NE 08:46:59 10° ESE daylight
10 Aug - 10:43:08 10° W 10:46:40 21° SW 10:50:40 10° SSE daylight
10 Aug - 19:10:47 10° SSW 19:22:45 36° SE 19:36:06 10° E visible
10 Aug - 21:15:10 10° SW 21:30:14 85° NW 21:44:11 10° NE visible
10 Aug - 23:25:03 10° W 23:37:21 29° NW 23:47:14 10° NNE visible
